Showing default

COSMOS 1894, 18443

Orbit data source: Space-Track

COSMOS 1894, 18443 is a payload satellite owned by PVO (CIS) in GEO that was launched on Wed, 28 Oct 1987 UTC via a PROTON-K/DM-2 launch vehicle from the Tyuratam Missile And Space Complex (TTMTR). Payload-class satellites include a variety of spacecraft equipped with specific instruments for various scientific and technological missions. These include communications satellites like Starlink; space stations such as the ISS; scientific satellites like the Hubble; Earth observation satellites from companies like Planet Labs, Umbra, and HawkEye 360; GPS; miniature CubeSats for education and research; and military/defense satellites.

Not visible in the next 10 days
Identifier
18443, 1987-091A
Orbit
GEO
Country
Flag of CISCIS
Related business
Manufacturer
NPOL/KOMET
Mission
Defense Early Warn
Bus & Motor
OKO, Unknown motor
Mass
~1,250 kg wet, ~1,150 kg dry
Launch date (UTC)
1987-10-28 (38 years ago)
Launch vehicle
PROTON-K/DM-2
Launch site
Tyuratam Missile And Space Complex (TTMTR)
Object type
Payload
Rocket body
Debris
Shape & HBR
Cyl + 2 Pan, 2.5 m
Radar Cross Section
6.333 m², Large (>1 m²)

Expand to show TLE details & history
Last TLE update: 10 hours ago

TLE from 10 hours ago
0 COSMOS 1894
1 18443U 87091A   25286.91125883 -.00000198  00000-0  00000-0 0  9994
2 18443  11.1087 327.1232 0002439 333.4935  28.1997  1.00284191118358
Epoch: 2025-10-13T21:52Z
TLE epoch observation values (Epoch: 2025-10-13T21:52:12.762Z)
Latitude
0.33692°
Longitude
-21.96512°
Altitude
35,773.565 km
Speed
3.076 km/s
True Right ascension
21h 55m 10s
True Declination
0° 20' 12"
Sunlit
Object was in daylight at epoch
Visualization orbit readout
Latitude
Unknown
Longitude
Unknown
Altitude
Unknown
Speed
Unknown
Apparent Right ascension
Unknown
Apparent Declination
Unknown
Sunlit
N/A
Visualization observer readout
Local Sidereal Time
02:42:37
Azimuth
Unknown
Elevation
Unknown
Doppler factor
Unknown
Orbital elements
Apogee altitude
35,794.413 km
Perigee altitude
35,773.846 km
Semi-major axis
42,162.267 km
Eccentricity
0.00024
Inclination
11.1087°
RAAN
327.1232°
Arg. of periapsis
333.4935°
True anomaly
28.21291°
Mean anomaly
28.1997°
Eccentric anomaly
28.2063°
Mean motion
0.2507 °/min
Orbital period
1,435.97 mins
BSTAR
0
Loading maneuver chart data...
Computing Atmospheric mass density...
Loading historical data...
Loading historical data...
Loading historical data...
Loading historical data...
Loading historical data...
Loading historical data...
Loading historical data...

Documentation

Showing up to 5 results
|